Weather History for KAFF - November, 2013

Change the Weather History Date:

Saturday, November 9, 2013

  Actual Average Record
Temperature  
Mean Temperature 42 °F -  
Max Temperature 56 °F 48 °F 68 °F (1999)
Min Temperature 28 °F 25 °F 12 °F (2000)
Degree Days  
Heating Degree Days 23    
Moisture  
Dew Point 20 °F    
Average Humidity 45    
Maximum Humidity 70    
Minimum Humidity 26    
Precipitation  
Precipitation 0.00 in - - ()
Sea Level Pressure  
Sea Level Pressure 30.15 in    
Wind  
Wind Speed 8 mph (ENE)    
Max Wind Speed 14 mph    
Max Gust Speed 18 mph    
Visibility 10 miles    
Events      
Averages and records for this station are not official NWS values.
T = Trace of Precipitation, MM = Missing Value Source: NWS Daily Summary

Daily Weather History Graph

Daily Weather History Graph

Search for Another Location

Airport or City:

Trip Planner

Search our weather history database for the weather conditions in past years. The results will help you decide how hot, cold, wet, or windy it might be!

Date:

Astronomy

Nov. 09, 2013 Rise Set
Actual Time 6:35 AM MST 4:50 PM MST
Civil Twilight 6:07 AM MST 5:18 PM MST
Nautical Twilight 5:35 AM MST 5:50 PM MST
Astronomical Twilight 5:04 AM MST 6:21 PM MST
Moon 12:14 PM MST (11/9) 11:22 PM MST (11/9)
Length of Visible Light 11h 10m
Length of Day
10h 14m
Waxing Crescent, 45% of the Moon is Illuminated
Nov 9
Waxing Crescent
Nov 9
First Quarter
Nov 17
Full
Nov 25
Last Quarter
Dec 2
New

Hourly Weather History & Observations

Time (MST) Temp. Windchill Dew Point Humidity Pressure Visibility Wind Dir Wind Speed Gust Speed Precip Events Conditions
12:58 AM 29.8 °F 23.9 °F 13.8 °F 51% 29.98 in 10.0 mi North 5.8 mph - N/A   Clear
1:58 AM 29.8 °F 21.5 °F 14.7 °F 53% 29.99 in 10.0 mi North 9.2 mph - N/A   Clear
2:58 AM 28.4 °F 21.2 °F 15.1 °F 57% 30.01 in 10.0 mi NNE 6.9 mph - N/A   Clear
3:58 AM 28.6 °F 20.7 °F 15.3 °F 58% 30.05 in 10.0 mi North 8.1 mph - N/A   Clear
4:58 AM 30.0 °F 21.1 °F 16.3 °F 57% 30.09 in 10.0 mi North 10.4 mph - N/A   Clear
5:58 AM 30.4 °F 21.5 °F 16.9 °F 57% 30.15 in 10.0 mi North 10.4 mph - N/A   Clear
6:58 AM 29.3 °F 21.5 °F 17.6 °F 62% 30.19 in 10.0 mi North 8.1 mph - N/A   Clear
7:58 AM 37.2 °F 33.6 °F 19.4 °F 49% 30.15 in 10.0 mi North 4.6 mph - N/A   Clear
8:58 AM 46.2 °F - 21.4 °F 37% 30.16 in 10.0 mi Variable 2.3 mph - N/A   Clear
9:58 AM 52.0 °F - 20.1 °F 29% 30.12 in 10.0 mi SE 6.9 mph - N/A   Clear
10:58 AM 54.7 °F - 20.5 °F 26% 30.12 in 10.0 mi SSE 13.8 mph - N/A   Clear
11:58 AM 54.9 °F - 21.2 °F 27% 30.11 in 10.0 mi SE 10.4 mph - N/A   Clear
12:58 PM 56.3 °F - 21.2 °F 26% 30.12 in 10.0 mi SE 12.7 mph 18.4 mph N/A   Clear
1:58 PM 56.7 °F - 22.5 °F 27% 30.12 in 10.0 mi SE 10.4 mph - N/A   Clear
2:58 PM 56.1 °F - 21.9 °F 27% 30.15 in 10.0 mi SSE 13.8 mph - N/A   Clear
3:58 PM 53.8 °F - 21.7 °F 29% 30.18 in 10.0 mi SSE 10.4 mph - N/A   Clear
4:58 PM 49.3 °F - 20.8 °F 33% 30.22 in 10.0 mi SE 9.2 mph - N/A   Clear
5:58 PM 46.0 °F 44.8 °F 20.8 °F 37% 30.25 in 10.0 mi South 3.5 mph - N/A   Clear
6:58 PM 43.0 °F 40.3 °F 21.6 °F 43% 30.29 in 10.0 mi South 4.6 mph - N/A   Clear
7:58 PM 43.0 °F - 22.1 °F 44% 30.26 in 10.0 mi ESE 1.2 mph - N/A   Clear
8:58 PM 41.7 °F - 22.5 °F 46% 30.24 in 10.0 mi Calm Calm - N/A   Clear
9:58 PM 30.6 °F 23.8 °F 20.3 °F 66% 30.25 in 10.0 mi NNW 6.9 mph - N/A   Clear
10:58 PM 30.9 °F 24.3 °F 20.8 °F 66% 30.24 in 10.0 mi North 6.9 mph - N/A   Clear
11:58 PM 29.5 °F 22.5 °F 20.7 °F 70% 30.24 in 10.0 mi NNW 6.9 mph - N/A   Clear